Date String (YYYY-MM-DD hh:mm:ss) UTC,Instrument flags,absolute air pressure of the measurement (hPa),sample flow rate (lpm),inlet stack bypass flow (lpm),air temperature of the measurement (°C),ambient temperature measured by the external sensor (°C),aerosol sample conditioner tube jacket temperature (°C),OPC LED temperature (°C),internal box temperature (°C),relative humidity of the measurement (%),span deviation,mass concentration of particles derived from Lorenz-Mie calculation of OPC scattering (μg/m³),mass concentration of particles derived from Lorenz-Mie calculation of OPC scattering (μg/m³),mass concentration of particles derived from Lorenz-Mie calculation of OPC scattering (μg/m³)
DateTimeUTC,F1_M11,P_M11,Q1_M11,Q2_M11,T1_M11,T2_M11,T3_M11,T4_M11,T5_M11,U1_M11,ZSPAN_M11,X0_M11,X2_M11,X1_M11
2023-10-13 07:00:00,SystemResetWarning,0827.8,5.00,000.00,026.9,025.4,000.0,035.3,028.6,14.9,0000.0,0000.71,0000.24,0000.10
2023-10-13 07:01:00,SystemResetWarning,0827.9,5.00,000.00,026.9,025.4,000.0,035.3,028.6,14.9,0000.0,0000.67,0000.22,0000.09
2023-10-13 07:02:00,SystemResetWarning,0827.9,5.00,000.00,026.9,025.4,000.0,035.3,028.6,14.9,0000.0,0000.66,0000.21,0000.08
2023-10-13 07:03:00,SystemResetWarning,0828.0,5.00,000.00,026.9,025.4,000.0,035.3,028.6,14.8,0000.0,0000.77,0000.23,0000.08
2023-10-13 07:04:00,SystemResetWarning,0828.0,5.00,000.00,026.9,025.4,000.0,035.3,028.6,14.8,0000.0,0000.98,0000.26,0000.08
2023-10-13 07:05:00,SystemResetWarning,0828.0,5.00,000.00,026.9,025.4,000.0,035.3,028.6,14.8,0000.0,0001.25,0000.29,0000.08
2023-10-13 07:06:00,SystemResetWarning,0828.0,5.01,000.00,026.9,025.4,000.0,035.3,028.6,14.8,0000.0,0001.29,0000.30,0000.09
2023-10-13 07:07:00,SystemResetWarning,0828.0,5.01,000.00,026.9,025.4,000.0,035.3,028.6,14.8,0000.0,0001.31,0000.32,0000.09
2023-10-13 07:08:00,SystemResetWarning,0828.1,5.00,000.00,026.9,025.4,000.0,035.3,028.6,14.8,0000.0,0001.43,0000.33,0000.09
2023-10-13 07:09:00,SystemResetWarning,0828.1,5.00,000.00,026.9,025.4,000.0,035.2,028.6,14.8,0000.0,0001.62,0000.34,0000.09
2023-10-13 07:10:00,SystemResetWarning,0828.1,5.00,000.00,026.9,025.4,000.0,035.3,028.5,14.9,0000.0,0001.51,0000.32,0000.08
2023-10-13 07:11:00,SystemResetWarning,0828.1,5.00,000.00,026.9,025.3,000.0,035.3,028.5,15.0,0000.0,0001.35,0000.29,0000.08
2023-10-13 07:12:00,SystemResetWarning,0828.1,5.00,000.00,026.8,025.3,000.0,035.3,028.5,14.9,0000.0,0001.30,0000.28,0000.08
2023-10-13 07:13:00,SystemResetWarning,0828.1,5.00,000.00,026.8,025.3,000.0,035.2,028.5,14.9,0000.0,0001.29,0000.28,0000.08
2023-10-13 07:14:00,SystemResetWarning,0828.1,5.00,000.00,026.8,025.3,000.0,035.2,028.5,15.0,0000.0,0001.28,0000.28,0000.08
2023-10-13 07:15:00,SystemResetWarning,0828.1,4.99,000.00,026.8,025.3,000.0,035.2,028.4,15.1,0000.0,0001.14,0000.25,0000.08
2023-10-13 07:16:00,SystemResetWarning,0828.1,5.00,000.00,026.8,025.2,000.0,035.2,028.4,15.0,0000.0,0000.86,0000.24,0000.08
2023-10-13 07:17:00,SystemResetWarning,0828.1,5.00,000.00,026.8,025.2,000.0,035.2,028.4,15.0,0000.0,0000.86,0000.25,0000.08
2023-10-13 07:18:00,SystemResetWarning,0828.1,5.01,000.00,026.7,025.2,000.0,035.2,028.3,15.2,0000.0,0000.90,0000.25,0000.08
2023-10-13 07:19:00,SystemResetWarning,0828.1,5.01,000.00,026.7,025.2,000.0,035.2,028.3,15.2,0000.0,0000.85,0000.26,0000.08
2023-10-13 07:20:00,SystemResetWarning,0828.1,5.00,000.00,026.7,025.1,000.0,035.2,028.3,15.2,0000.0,0000.52,0000.23,0000.08
2023-10-13 07:21:00,SystemResetWarning,0828.1,5.00,000.00,026.7,025.1,000.0,035.2,028.2,15.2,0000.0,0000.52,0000.23,0000.08
2023-10-13 07:22:00,SystemResetWarning,0828.1,5.00,000.00,026.7,025.1,000.0,035.2,028.2,15.2,0000.0,0000.51,0000.23,0000.08
2023-10-13 07:23:00,SystemResetWarning,0828.1,5.01,000.00,026.6,025.1,000.0,035.2,028.2,15.1,0000.0,0000.50,0000.22,0000.08
2023-10-13 07:24:00,SystemResetWarning,0828.1,5.00,000.00,026.6,025.0,000.0,035.1,028.2,15.1,0000.0,0000.50,0000.22,0000.08
2023-10-13 07:25:00,SystemResetWarning,0828.1,5.00,000.00,026.6,025.0,000.0,035.1,028.2,15.2,0000.0,0000.44,0000.21,0000.08
2023-10-13 07:26:00,SystemResetWarning,0828.1,5.00,000.00,026.6,025.0,000.0,035.1,028.2,15.3,0000.0,0000.39,0000.22,0000.08
2023-10-13 07:27:00,SystemResetWarning,0828.1,5.00,000.00,026.6,025.0,000.0,035.1,028.2,15.4,0000.0,0000.45,0000.24,0000.07
2023-10-13 07:28:00,SystemResetWarning,0828.1,5.00,000.00,026.6,025.0,000.0,035.1,028.2,15.4,0000.0,0000.43,0000.24,0000.07
2023-10-13 07:29:00,SystemResetWarning,0828.1,5.00,000.00,026.6,025.0,000.0,035.1,028.2,15.4,0000.0,0000.39,0000.22,0000.08
2023-10-13 07:30:00,SystemResetWarning,0828.1,5.00,000.00,026.6,025.0,000.0,035.1,028.2,15.3,0000.0,0000.31,0000.18,0000.07
2023-10-13 07:31:00,SystemResetWarning,0828.1,5.00,000.00,026.6,025.0,000.0,035.1,028.2,15.3,0000.0,0000.34,0000.19,0000.08
2023-10-13 07:32:00,SystemResetWarning,0828.0,5.00,000.00,026.5,025.0,000.0,035.1,028.1,15.3,0000.0,0000.35,0000.20,0000.08
2023-10-13 07:33:00,SystemResetWarning,0828.0,5.00,000.00,026.5,025.0,000.0,035.1,028.1,15.3,0000.0,0000.38,0000.21,0000.08
2023-10-13 07:34:00,SystemResetWarning,0828.0,5.00,000.00,026.5,024.9,000.0,035.1,028.1,15.3,0000.0,0000.57,0000.25,0000.09
2023-10-13 07:35:00,SystemResetWarning,0828.0,5.00,000.00,026.5,024.9,000.0,035.0,028.1,15.4,0000.0,0000.61,0000.26,0000.09
2023-10-13 07:36:00,SystemResetWarning,0828.0,5.00,000.00,026.5,024.9,000.0,035.0,028.0,15.4,0000.0,0000.59,0000.24,0000.09
2023-10-13 07:37:00,SystemResetWarning,0828.0,5.00,000.00,026.5,024.9,000.0,035.0,028.0,15.4,0000.0,0000.62,0000.25,0000.09
2023-10-13 07:38:00,SystemResetWarning,0828.0,5.00,000.00,026.4,024.9,000.0,035.0,028.0,15.4,0000.0,0000.97,0000.23,0000.09
2023-10-13 07:39:00,SystemResetWarning,0828.0,5.01,000.00,026.4,024.9,000.0,035.0,028.0,15.4,0000.0,0000.96,0000.22,0000.10
2023-10-13 07:40:00,SystemResetWarning,0828.1,5.01,000.00,026.4,024.8,000.0,035.0,028.0,15.4,0000.0,0000.99,0000.22,0000.10
2023-10-13 07:41:00,SystemResetWarning,0828.1,5.00,000.00,026.4,024.8,000.0,035.0,028.0,15.5,0000.0,0001.14,0000.26,0000.10
2023-10-13 07:42:00,SystemResetWarning,0828.1,5.00,000.00,026.4,024.8,000.0,035.0,027.9,15.5,0000.0,0001.14,0000.27,0000.10
2023-10-13 07:43:00,SystemResetWarning,0828.1,5.00,000.00,026.4,024.8,000.0,034.9,027.9,15.6,0000.0,0001.17,0000.28,0000.10
2023-10-13 07:44:00,SystemResetWarning,0828.1,4.99,000.00,026.3,024.7,000.0,034.9,027.9,15.7,0000.0,0001.24,0000.30,0000.10
2023-10-13 07:45:00,SystemResetWarning,0828.1,5.00,000.00,026.3,024.7,000.0,034.9,027.9,15.7,0000.0,0001.04,0000.25,0000.09
2023-10-13 07:46:00,SystemResetWarning,0828.1,5.00,000.00,026.3,024.7,000.0,034.9,027.9,15.8,0000.0,0000.97,0000.24,0000.09
2023-10-13 07:47:00,SystemResetWarning,0828.1,5.00,000.00,026.3,024.6,000.0,034.9,027.8,15.8,0000.0,0001.13,0000.25,0000.09
2023-10-13 07:48:00,SystemResetWarning,0828.1,4.99,000.00,026.3,024.6,000.0,034.9,027.8,15.8,0000.0,0001.16,0000.24,0000.09
2023-10-13 07:49:00,SystemResetWarning,0828.1,4.99,000.00,026.3,024.6,000.0,034.9,027.8,15.8,0000.0,0000.77,0000.23,0000.09
2023-10-13 07:50:00,SystemResetWarning,0828.1,5.00,000.00,026.2,024.6,000.0,034.8,027.8,15.8,0000.0,0000.73,0000.23,0000.09
2023-10-13 07:51:00,SystemResetWarning,0828.1,5.01,000.00,026.2,024.6,000.0,034.8,027.8,15.8,0000.0,0000.76,0000.23,0000.09
2023-10-13 07:52:00,SystemResetWarning,0828.1,5.01,000.00,026.2,024.6,000.0,034.8,027.8,15.9,0000.0,0000.92,0000.20,0000.09
2023-10-13 07:53:00,SystemResetWarning,0828.1,5.00,000.00,026.2,024.6,000.0,034.8,027.7,15.9,0000.0,0001.74,0000.22,0000.09
2023-10-13 07:54:00,SystemResetWarning,0828.1,5.00,000.00,026.2,024.6,000.0,034.8,027.7,15.9,0000.0,0001.95,0000.21,0000.09
2023-10-13 07:55:00,SystemResetWarning,0828.1,5.00,000.00,026.2,024.6,000.0,034.8,027.7,15.9,0000.0,0003.15,0000.21,0000.09
2023-10-13 07:56:00,SystemResetWarning,0828.2,5.00,000.00,026.1,024.6,000.0,034.7,027.7,15.9,0000.0,0003.70,0000.23,0000.09
2023-10-13 07:57:00,SystemResetWarning,0828.2,5.00,000.00,026.1,024.6,000.0,034.7,027.7,15.9,0000.0,0003.78,0000.26,0000.10
2023-10-13 07:58:00,SystemResetWarning,0828.2,4.99,000.00,026.1,024.6,000.0,034.7,027.7,15.9,0000.0,0004.17,0000.28,0000.10
2023-10-13 07:59:00,SystemResetWarning,0828.2,5.00,000.00,026.1,024.6,000.0,034.7,027.7,15.9,0000.0,0004.50,0000.27,0000.10
